SCP
0 0 0 0 0 0 0 0 0 0 0 0 0 0 0 0 0 0 0 0 0 0 0 0 0 0 0 0 0 0 0 0 0 1 2 3 4 2 2 2 1 2 1 1
0 0 0 0 0 0 0 0 0 0 0 0 0 0 0 0 0 0 0 0 0 0 0 0 0 0 0 0 0 0 0 0 0 0 0 1 2 3 2 2 1 1 1 1
0 0 0 -0 0 0 0 0 0 0 0 0 0 0 0 0 0 0 -0 0 0 0 0 0 0 0 0 0 0 0 0 0 0 0 0 2 3 2 1 1 1 0 1 1
0 0 -0 0 0 0 0 0 0 0 0 0 0 0 0 0 0 0 0 0 0 0 0 0 0 0 0 0 0 0 0 1 1 1 0 2 2 1 1 1 0 1 1 1
0 0 0 0 0 0 0 0 0 0 0 0 0 0 0 0 0 0 0 0 0 0 0 0 0 0 0 0 0 0 0 0 1 1 1 2 1 1 1 0 0 0 0 0
0 -0 0 0 -0 0 0 0 0 0 0 0 0 0 0 0 0 0 0 0 0 0 0 0 0 0 0 0 0 0 0 0 0 0 0 1 1 0 0 0 0 0 0 0
0 0 0 0 0 0 0 0 0 0 0 0 0 0 0 0 -0 0 0 0 0 0 0 0 0 0 0 0 0 0 0 0 0 0 0 0 1 0 0 0 0 1 0 0
0 0 0 0 0 0 0 0 0 0 0 0 0 0 0 0 -0 0 0 0 0 0 0 0 0 0 0 0 0 0 0 0 0 0 0 0 0 0 0 1 1 1 1 0
0 0 0 0 0 0 0 0 0 0 0 0 0 0 0 0 0 0 0 0 0 0 0 0 0 0 0 0 0 0 0 0 0 -0 0 0 0 0 1 1 0 1 1 0
0 0 0 0 0 0 0 0 0 0 0 0 0 0 0 0 0 0 0 0 0 0 0 0 0 0 0 0 0 0 -0 0 0 0 0 0 0 0 0 0 0 0 0 0
0 0 0 0 0 0 0 0 0 0 0 0 0 0 0 0 0 0 0 0 0 0 0 0 0 0 0 0 0 0 0 -0 0 0 0 0 0 0 0 0 0 0 0 0
0 0 0 -0 -0 0 0 0 0 0 0 0 0 0 0 0 0 0 0 0 0 0 0 0 0 0 0 0 0 0 0 0 -0 0 0 0 0 0 0 0 0 0 1 0
0 0 0 -0 0 0 0 0 0 0 -0 0 0 0 0 0 0 0 0 0 0 0 0 0 0 0 0 0 0 0 0 0 -0 0 0 0 0 0 0 0 0 0 0 0
-0 0 0 -0 -0 -0 0 0 0 -0 -0 0 0 0 0 0 0 0 -0 0 0 0 0 0 0 0 0 0 0 0 0 -0 -0 -0 0 0 0 0 0 0 0 0 0 0
-0 -0 -0 -0 -0 -0 0 0 -0 -0 0 0 0 0 0 0 0 0 -0 0 0 0 0 0 0 0 0 0 0 0 0 0 -0 -0 -0 0 0 0 0 0 0 0 0 0
0 0 0 -0 -0 0 0 0 0 0 -0 -0 -0 0 0 0 0 -0 0 0 0 0 0 0 0 0 0 0 0 0 0 0 0 0 -0 0 0 0 0 0 0 0 0 0
-0 0 0 0 -0 -0 -0 -0 0 -0 0 0 0 -0 0 0 0 0 0 0 0 0 0 0 0 0 0 0 0 0 0 0 0 0 0 0 0 0 0 0 0 0 0 0
-0 -0 -0 0 -0 0 -0 -0 -0 0 -0 -0 -0 0 0 0 0 0 0 0 0 0 0 0 0 0 0 0 0 0 0 0 0 0 0 0 0 0 0 0 0 0 0 0
-0 -0 -0 -0 -0 -0 -0 -0 -0 -0 0 0 0 0 0 0 0 0 0 0 0 0 0 0 0 0 0 0 0 0 0 0 0 0 0 0 0 0 0 0 0 0 0 0
-0 -0 -0 -0 -0 0 0 -0 -0 -0 -0 -0 0 0 0 0 0 0 0 0 0 0 0 0 0 0 0 0 0 0 0 0 0 0 0 0 0 0 0 0 0 0 0 0
-0 -0 -0 -0 0 0 -0 -0 -0 -0 0 -0 -0 -0 -0 -0 0 0 0 0 0 0 0 0 0 0 0 0 0 0 0 0 0 0 0 0 0 0 0 0 0 0 0 0
0 -0 -0 0 0 0 -0 0 0 -0 -0 -0 -0 -0 0 0 -0 -0 0 0 0 0 0 0 0 0 0 0 0 0 0 0 0 0 0 0 0 0 0 0 0 0 0 0
0 0 0 -0 -0 -0 -0 -0 0 0 0 -0 -0 -0 -0 -0 -0 -0 -0 0 0 0 0 0 0 0 0 0 0 0 0 0 0 0 0 0 0 0 0 0 0 0 0 0
0 0 -0 -0 -0 -0 -0 0 -0 0 0 -0 -0 -0 -0 -0 -0 -0 -0 0 0 0 0 0 0 0 0 0 0 0 0 0 0 0 0 0 0 0 0 0 0 0 0 0
-0 -0 0 -0 -0 -0 -0 0 -0 -0 0 0 0 -0 -0 -0 -0 0 0 0 0 0 0 0 0 0 0 0 0 0 0 0 0 0 0 0 0 0 0 0 0 0 0 0
-0 -0 -0 -0 0 -0 -0 0 -0 -0 0 0 -0 -0 -0 0 0 0 0 0 0 0 0 0 0 0 0 0 -0 -0 0 0 0 0 0 0 0 0 0 0 0 0 0 0
Wind_Speed_500mb
30 25 24 34 41 51 49 49 56 50 42 39 20 37 49 44 41 39 30 29 39 38 34 39 32 34 20 20 24 34 46 50 56 52 56 64 64 67 68 66 77 55 62 61
24 33 39 39 39 46 49 52 53 47 43 36 21 44 43 48 47 40 48 44 49 39 34 46 40 25 12 16 21 31 35 42 49 52 62 64 64 62 74 68 57 75 57 58
28 35 40 45 42 38 43 47 45 50 45 34 26 47 47 47 55 59 65 65 43 41 39 33 26 11 12 16 21 23 30 35 43 46 46 54 58 64 68 68 61 62 78 70
33 32 32 34 47 45 48 38 45 41 36 29 30 36 41 37 40 41 60 69 43 27 17 23 18 14 13 17 10 21 20 23 28 39 46 58 70 73 78 74 63 62 70 60
42 42 42 45 46 34 51 40 40 34 33 35 43 28 36 32 49 52 47 75 46 35 27 16 13 5 8 9 16 15 22 12 23 31 48 44 64 69 74 65 64 68 69 72
47 52 41 49 51 46 38 34 40 37 27 29 44 31 44 33 40 19 27 15 39 40 27 14 12 7 6 4 8 13 22 26 27 42 43 37 55 50 54 49 54 60 67 58
34 34 39 50 42 38 49 32 22 12 20 33 19 27 46 28 39 21 21 36 38 36 25 13 12 6 4 9 15 20 13 25 35 33 25 48 49 44 49 47 50 48 47 60
31 31 31 30 28 23 35 17 24 41 26 31 28 25 41 42 36 10 35 55 37 29 22 17 9 2 5 9 17 23 24 15 24 31 25 34 52 48 60 45 53 51 53 52
31 39 41 49 35 14 17 21 26 35 41 26 19 40 29 20 22 20 35 44 35 29 19 15 6 7 4 13 20 22 25 20 16 34 28 29 44 58 57 46 44 42 43 40
31 35 38 46 49 34 27 27 14 12 7 26 30 37 8 19 22 31 25 25 27 23 15 7 4 4 6 12 17 29 28 24 27 21 31 29 41 62 57 53 46 40 47 42
31 27 39 41 36 33 8 13 16 15 12 17 23 23 23 9 24 19 31 29 23 18 11 1 3 10 11 12 18 24 29 35 32 34 31 32 33 52 62 53 46 44 45 48
30 21 29 39 46 7 14 16 4 4 13 19 25 28 12 17 34 32 23 18 18 2 5 6 12 14 15 18 18 16 22 28 39 38 35 37 38 38 57 64 52 49 48 48
13 10 12 24 19 7 13 30 10 11 7 17 6 6 36 14 9 17 19 5 2 2 10 13 17 25 14 19 9 14 31 34 40 45 40 34 38 42 51 60 58 47 49 45
51 32 34 29 36 10 20 27 19 7 9 22 16 29 21 34 17 20 36 9 14 18 17 18 25 22 9 15 19 26 34 50 44 46 42 29 38 41 48 52 61 67 55 48
25 24 32 38 41 41 34 33 31 24 23 22 29 25 16 8 14 48 69 7 7 16 24 23 29 15 19 23 24 33 41 48 56 44 39 35 38 37 41 49 58 59 51 49
6 3 11 26 41 34 34 39 36 35 28 28 24 30 34 31 10 24 28 19 20 21 25 23 21 24 27 32 36 39 46 54 49 50 40 40 32 37 38 43 58 52 48 48
22 17 22 19 30 39 30 25 32 29 26 24 18 22 30 22 17 37 45 39 37 38 26 15 17 17 23 30 33 44 52 50 49 49 41 40 35 34 42 45 57 51 53 51
17 22 16 21 23 22 11 23 35 22 11 21 21 24 26 38 39 36 41 40 42 36 29 25 25 25 24 27 40 49 46 48 48 48 46 37 37 30 41 45 54 58 55 56
19 16 11 9 16 27 21 21 26 26 23 33 32 42 49 50 40 24 34 31 29 32 29 28 29 25 23 29 40 45 44 47 49 47 50 42 39 30 46 44 75 66 61 56
28 12 14 13 10 7 24 45 57 33 11 35 36 28 29 37 12 9 32 27 26 26 28 31 29 26 29 36 43 45 44 47 51 51 50 45 40 32 51 41 76 69 60 60
19 18 19 8 11 9 36 46 46 9 15 39 34 19 13 8 9 15 22 27 29 30 33 34 34 34 36 42 48 45 45 46 51 50 49 43 40 41 34 39 74 73 66 65
11 15 13 10 12 10 52 20 15 20 35 33 31 33 30 25 25 26 29 35 36 38 38 37 35 34 35 40 49 48 46 48 46 44 42 37 35 38 40 45 74 75 72 72
7 8 10 10 6 8 16 13 30 33 34 43 43 41 37 35 35 33 33 35 35 35 36 36 35 33 32 39 45 50 48 47 42 38 36 34 31 32 37 56 81 76 79 79
6 10 5 20 10 27 15 42 40 39 41 40 38 33 33 29 30 27 27 29 31 34 37 37 36 35 36 39 42 46 46 40 34 31 28 24 24 26 33 55 56 76 80 85
3 4 11 11 13 32 30 36 39 37 32 31 29 30 30 28 29 29 27 29 31 33 36 37 37 37 38 39 43 43 41 34 28 23 19 11 9 13 19 41 51 66 86 87
6 5 5 5 21 18 22 33 35 36 37 28 32 32 30 29 27 27 27 28 31 34 36 37 37 38 40 39 41 41 37 33 25 18 13 5 5 16 18 29 36 28 63 77
Wind_Direction_500mb
266 244 252 256 242 248 260 270 280 275 283 295 333 301 274 292 271 266 239 218 260 233 232 236 219 204 222 254 267 270 257 251 248 235 228 225 231 247 246 241 219 231 232 228
262 257 259 257 260 265 269 269 261 268 266 277 292 269 272 281 288 294 304 222 236 233 238 234 205 183 196 243 259 259 259 258 250 254 239 234 230 237 249 250 229 217 233 232
289 288 290 278 261 262 259 262 275 276 281 273 277 271 265 270 275 283 288 286 226 250 232 201 160 164 220 247 248 264 272 254 248 248 243 232 225 227 236 239 230 220 225 230
287 289 275 290 280 272 265 270 283 280 280 269 257 265 249 256 263 256 261 266 251 233 151 132 142 191 188 215 259 280 257 254 250 250 230 233 228 224 230 237 234 222 215 227
277 291 287 285 281 278 282 292 271 276 284 287 260 247 259 253 249 249 228 237 224 170 167 142 156 161 209 255 300 304 308 245 245 240 223 239 239 238 243 243 240 231 225 227
266 269 270 267 273 275 273 284 280 269 281 261 254 259 268 259 255 233 232 158 138 120 129 144 155 198 195 8 316 301 310 309 264 243 238 233 237 242 240 236 234 228 224 226
294 296 296 292 285 277 257 245 256 265 239 253 247 249 250 259 252 249 186 151 131 119 132 183 168 204 342 324 327 317 315 315 288 302 247 228 235 244 228 230 225 221 220 219
300 300 305 0 344 323 302 304 270 240 250 260 274 250 250 238 250 296 246 135 131 142 156 198 184 210 336 358 345 331 335 341 284 296 282 243 229 227 217 232 221 223 230 223
314 301 316 309 321 310 306 283 311 268 262 281 260 281 237 288 203 116 116 131 150 146 153 218 168 192 314 337 344 336 338 320 325 311 294 263 239 223 220 225 228 232 229 233
302 300 295 295 298 275 282 323 298 226 230 238 245 265 196 233 180 145 152 157 143 144 168 209 212 310 314 329 337 339 342 331 315 287 296 277 251 223 220 214 218 222 228 232
305 307 302 303 273 276 262 279 268 288 253 254 269 244 182 190 315 278 140 146 140 142 181 203 241 273 292 302 329 331 333 336 332 322 285 279 272 236 216 219 218 226 227 230
309 315 276 280 282 250 269 263 82 213 333 316 269 267 91 309 166 278 104 136 127 205 297 309 309 279 268 275 289 320 330 330 329 327 314 271 268 254 232 216 219 222 219 234
354 287 316 295 273 5 20 315 315 335 238 260 275 317 354 55 182 241 125 84 98 210 292 332 323 303 292 298 287 336 322 323 329 327 319 274 264 256 243 228 221 215 214 217
287 279 274 279 300 200 265 280 281 198 271 311 296 331 356 352 16 338 265 198 26 337 317 330 317 293 45 32 4 340 333 317 315 322 319 292 264 256 249 234 224 216 225 225
326 256 257 273 296 299 297 292 284 259 261 275 297 314 272 257 242 237 251 35 308 312 327 322 305 29 12 357 341 333 320 313 311 307 315 317 265 263 246 241 228 224 218 220
233 328 316 270 275 305 302 304 289 274 251 259 282 291 292 225 260 274 315 354 350 328 308 305 9 8 357 352 342 318 300 298 308 305 308 319 288 258 256 244 215 214 218 218
305 308 319 300 316 317 300 310 311 271 281 294 305 280 283 299 0 14 1 350 328 301 343 29 20 18 2 348 311 300 301 309 308 309 301 312 302 261 259 248 215 221 217 218
323 307 285 285 297 280 277 308 321 310 247 274 264 290 8 17 3 10 35 26 19 20 16 12 4 1 344 321 295 297 308 310 308 305 298 306 308 260 251 242 217 216 209 206
4 324 301 263 266 280 301 9 338 342 330 22 5 17 6 351 339 65 23 20 12 2 356 353 355 350 328 313 307 316 316 307 310 307 302 290 301 273 243 246 215 209 204 210
333 299 255 255 273 278 19 337 314 307 277 4 14 24 6 342 331 1 1 2 6 6 353 351 347 344 339 329 323 323 317 315 312 312 306 291 303 289 256 283 201 205 209 208
323 344 357 249 256 99 352 337 324 304 0 348 17 6 19 15 328 329 7 2 359 0 351 351 351 348 344 332 328 325 320 315 316 314 306 292 293 280 279 268 206 204 204 203
337 337 357 347 6 8 5 13 30 319 334 10 8 14 26 30 27 19 14 9 5 1 357 353 350 345 341 334 328 328 324 320 322 318 310 294 300 295 266 252 198 198 199 197
8 358 318 358 45 344 25 14 353 1 4 3 8 16 19 20 13 12 7 5 1 358 353 351 348 344 342 337 334 329 328 327 330 325 318 306 313 303 233 215 196 197 194 195
293 10 324 315 42 357 35 15 14 15 13 12 24 25 22 20 12 6 4 0 359 353 351 349 347 345 340 338 335 331 331 331 334 327 321 325 323 311 252 210 195 197 198 188
265 339 325 287 15 342 12 8 12 7 11 16 18 20 23 16 12 7 2 359 356 350 352 351 350 348 344 342 338 339 340 339 340 331 316 316 324 305 253 211 194 182 190 189
24 21 343 320 346 315 323 357 5 3 7 13 13 13 15 16 11 4 2 355 352 352 354 356 355 354 352 351 350 352 354 353 348 346 340 347 101 128 149 192 181 172 178 186
Wind_Speed_850mb
30 25 24 34 41 51 49 49 56 50 42 39 20 37 49 44 41 39 30 29 39 38 34 39 32 34 20 20 24 34 46 50 56 52 56 64 64 67 68 66 77 55 62 61
24 33 39 39 39 46 49 52 53 47 43 36 21 44 43 48 47 40 48 44 49 39 34 46 40 25 12 16 21 31 35 42 49 52 62 64 64 62 74 68 57 75 57 58
28 35 40 45 42 38 43 47 45 50 45 34 26 47 47 47 55 59 65 65 43 41 39 33 26 11 12 16 21 23 30 35 43 46 46 54 58 64 68 68 61 62 78 70
33 32 32 34 47 45 48 38 45 41 36 29 30 36 41 37 40 41 60 69 43 27 17 23 18 14 13 17 10 21 20 23 28 39 46 58 70 73 78 74 63 62 70 60
42 42 42 45 46 34 51 40 40 34 33 35 43 28 36 32 49 52 47 75 46 35 27 16 13 5 8 9 16 15 22 12 23 31 48 44 64 69 74 65 64 68 69 72
47 52 41 49 51 46 38 34 40 37 27 29 44 31 44 33 40 19 27 15 39 40 27 14 12 7 6 4 8 13 22 26 27 42 43 37 55 50 54 49 54 60 67 58
34 34 39 50 42 38 49 32 22 12 20 33 19 27 46 28 39 21 21 36 38 36 25 13 12 6 4 9 15 20 13 25 35 33 25 48 49 44 49 47 50 48 47 60
31 31 31 30 28 23 35 17 24 41 26 31 28 25 41 42 36 10 35 55 37 29 22 17 9 2 5 9 17 23 24 15 24 31 25 34 52 48 60 45 53 51 53 52
31 39 41 49 35 14 17 21 26 35 41 26 19 40 29 20 22 20 35 44 35 29 19 15 6 7 4 13 20 22 25 20 16 34 28 29 44 58 57 46 44 42 43 40
31 35 38 46 49 34 27 27 14 12 7 26 30 37 8 19 22 31 25 25 27 23 15 7 4 4 6 12 17 29 28 24 27 21 31 29 41 62 57 53 46 40 47 42
31 27 39 41 36 33 8 13 16 15 12 17 23 23 23 9 24 19 31 29 23 18 11 1 3 10 11 12 18 24 29 35 32 34 31 32 33 52 62 53 46 44 45 48
30 21 29 39 46 7 14 16 4 4 13 19 25 28 12 17 34 32 23 18 18 2 5 6 12 14 15 18 18 16 22 28 39 38 35 37 38 38 57 64 52 49 48 48
13 10 12 24 19 7 13 30 10 11 7 17 6 6 36 14 9 17 19 5 2 2 10 13 17 25 14 19 9 14 31 34 40 45 40 34 38 42 51 60 58 47 49 45
51 32 34 29 36 10 20 27 19 7 9 22 16 29 21 34 17 20 36 9 14 18 17 18 25 22 9 15 19 26 34 50 44 46 42 29 38 41 48 52 61 67 55 48
25 24 32 38 41 41 34 33 31 24 23 22 29 25 16 8 14 48 69 7 7 16 24 23 29 15 19 23 24 33 41 48 56 44 39 35 38 37 41 49 58 59 51 49
6 3 11 26 41 34 34 39 36 35 28 28 24 30 34 31 10 24 28 19 20 21 25 23 21 24 27 32 36 39 46 54 49 50 40 40 32 37 38 43 58 52 48 48
22 17 22 19 30 39 30 25 32 29 26 24 18 22 30 22 17 37 45 39 37 38 26 15 17 17 23 30 33 44 52 50 49 49 41 40 35 34 42 45 57 51 53 51
17 22 16 21 23 22 11 23 35 22 11 21 21 24 26 38 39 36 41 40 42 36 29 25 25 25 24 27 40 49 46 48 48 48 46 37 37 30 41 45 54 58 55 56
19 16 11 9 16 27 21 21 26 26 23 33 32 42 49 50 40 24 34 31 29 32 29 28 29 25 23 29 40 45 44 47 49 47 50 42 39 30 46 44 75 66 61 56
28 12 14 13 10 7 24 45 57 33 11 35 36 28 29 37 12 9 32 27 26 26 28 31 29 26 29 36 43 45 44 47 51 51 50 45 40 32 51 41 76 69 60 60
19 18 19 8 11 9 36 46 46 9 15 39 34 19 13 8 9 15 22 27 29 30 33 34 34 34 36 42 48 45 45 46 51 50 49 43 40 41 34 39 74 73 66 65
11 15 13 10 12 10 52 20 15 20 35 33 31 33 30 25 25 26 29 35 36 38 38 37 35 34 35 40 49 48 46 48 46 44 42 37 35 38 40 45 74 75 72 72
7 8 10 10 6 8 16 13 30 33 34 43 43 41 37 35 35 33 33 35 35 35 36 36 35 33 32 39 45 50 48 47 42 38 36 34 31 32 37 56 81 76 79 79
6 10 5 20 10 27 15 42 40 39 41 40 38 33 33 29 30 27 27 29 31 34 37 37 36 35 36 39 42 46 46 40 34 31 28 24 24 26 33 55 56 76 80 85
3 4 11 11 13 32 30 36 39 37 32 31 29 30 30 28 29 29 27 29 31 33 36 37 37 37 38 39 43 43 41 34 28 23 19 11 9 13 19 41 51 66 86 87
6 5 5 5 21 18 22 33 35 36 37 28 32 32 30 29 27 27 27 28 31 34 36 37 37 38 40 39 41 41 37 33 25 18 13 5 5 16 18 29 36 28 63 77
Wind_Direction_850mb
266 244 252 256 242 248 260 270 280 275 283 295 333 301 274 292 271 266 239 218 260 233 232 236 219 204 222 254 267 270 257 251 248 235 228 225 231 247 246 241 219 231 232 228
262 257 259 257 260 265 269 269 261 268 266 277 292 269 272 281 288 294 304 222 236 233 238 234 205 183 196 243 259 259 259 258 250 254 239 234 230 237 249 250 229 217 233 232
289 288 290 278 261 262 259 262 275 276 281 273 277 271 265 270 275 283 288 286 226 250 232 201 160 164 220 247 248 264 272 254 248 248 243 232 225 227 236 239 230 220 225 230
287 289 275 290 280 272 265 270 283 280 280 269 257 265 249 256 263 256 261 266 251 233 151 132 142 191 188 215 259 280 257 254 250 250 230 233 228 224 230 237 234 222 215 227
277 291 287 285 281 278 282 292 271 276 284 287 260 247 259 253 249 249 228 237 224 170 167 142 156 161 209 255 300 304 308 245 245 240 223 239 239 238 243 243 240 231 225 227
266 269 270 267 273 275 273 284 280 269 281 261 254 259 268 259 255 233 232 158 138 120 129 144 155 198 195 8 316 301 310 309 264 243 238 233 237 242 240 236 234 228 224 226
294 296 296 292 285 277 257 245 256 265 239 253 247 249 250 259 252 249 186 151 131 119 132 183 168 204 342 324 327 317 315 315 288 302 247 228 235 244 228 230 225 221 220 219
300 300 305 0 344 323 302 304 270 240 250 260 274 250 250 238 250 296 246 135 131 142 156 198 184 210 336 358 345 331 335 341 284 296 282 243 229 227 217 232 221 223 230 223
314 301 316 309 321 310 306 283 311 268 262 281 260 281 237 288 203 116 116 131 150 146 153 218 168 192 314 337 344 336 338 320 325 311 294 263 239 223 220 225 228 232 229 233
302 300 295 295 298 275 282 323 298 226 230 238 245 265 196 233 180 145 152 157 143 144 168 209 212 310 314 329 337 339 342 331 315 287 296 277 251 223 220 214 218 222 228 232
305 307 302 303 273 276 262 279 268 288 253 254 269 244 182 190 315 278 140 146 140 142 181 203 241 273 292 302 329 331 333 336 332 322 285 279 272 236 216 219 218 226 227 230
309 315 276 280 282 250 269 263 82 213 333 316 269 267 91 309 166 278 104 136 127 205 297 309 309 279 268 275 289 320 330 330 329 327 314 271 268 254 232 216 219 222 219 234
354 287 316 295 273 5 20 315 315 335 238 260 275 317 354 55 182 241 125 84 98 210 292 332 323 303 292 298 287 336 322 323 329 327 319 274 264 256 243 228 221 215 214 217
287 279 274 279 300 200 265 280 281 198 271 311 296 331 356 352 16 338 265 198 26 337 317 330 317 293 45 32 4 340 333 317 315 322 319 292 264 256 249 234 224 216 225 225
326 256 257 273 296 299 297 292 284 259 261 275 297 314 272 257 242 237 251 35 308 312 327 322 305 29 12 357 341 333 320 313 311 307 315 317 265 263 246 241 228 224 218 220
233 328 316 270 275 305 302 304 289 274 251 259 282 291 292 225 260 274 315 354 350 328 308 305 9 8 357 352 342 318 300 298 308 305 308 319 288 258 256 244 215 214 218 218
305 308 319 300 316 317 300 310 311 271 281 294 305 280 283 299 0 14 1 350 328 301 343 29 20 18 2 348 311 300 301 309 308 309 301 312 302 261 259 248 215 221 217 218
323 307 285 285 297 280 277 308 321 310 247 274 264 290 8 17 3 10 35 26 19 20 16 12 4 1 344 321 295 297 308 310 308 305 298 306 308 260 251 242 217 216 209 206
4 324 301 263 266 280 301 9 338 342 330 22 5 17 6 351 339 65 23 20 12 2 356 353 355 350 328 313 307 316 316 307 310 307 302 290 301 273 243 246 215 209 204 210
333 299 255 255 273 278 19 337 314 307 277 4 14 24 6 342 331 1 1 2 6 6 353 351 347 344 339 329 323 323 317 315 312 312 306 291 303 289 256 283 201 205 209 208
323 344 357 249 256 99 352 337 324 304 0 348 17 6 19 15 328 329 7 2 359 0 351 351 351 348 344 332 328 325 320 315 316 314 306 292 293 280 279 268 206 204 204 203
337 337 357 347 6 8 5 13 30 319 334 10 8 14 26 30 27 19 14 9 5 1 357 353 350 345 341 334 328 328 324 320 322 318 310 294 300 295 266 252 198 198 199 197
8 358 318 358 45 344 25 14 353 1 4 3 8 16 19 20 13 12 7 5 1 358 353 351 348 344 342 337 334 329 328 327 330 325 318 306 313 303 233 215 196 197 194 195
293 10 324 315 42 357 35 15 14 15 13 12 24 25 22 20 12 6 4 0 359 353 351 349 347 345 340 338 335 331 331 331 334 327 321 325 323 311 252 210 195 197 198 188
265 339 325 287 15 342 12 8 12 7 11 16 18 20 23 16 12 7 2 359 356 350 352 351 350 348 344 342 338 339 340 339 340 331 316 316 324 305 253 211 194 182 190 189
24 21 343 320 346 315 323 357 5 3 7 13 13 13 15 16 11 4 2 355 352 352 354 356 355 354 352 351 350 352 354 353 348 346 340 347 101 128 149 192 181 172 178 186